OneWeb SL0407

operational
NORAD ID: 50487 Int'l Des: 2021-132 Owner: ONEWEBN Country: UK Constellation: oneweb
LEOCIRCULARPOLARONEWEB_TYPE

Über OneWeb SL0407

Beschreibung wird geladen...

Live-Position

3D-Globus wird geladen...

Nächste Überflüge

Höhenverlauf

Altitude vs Time

uPlot chart will show altitude changes over time

Zweizeiliger Elementsatz

1 50487U 21132U 25296.68480922 .00000033 00000-0 51244-4 0 9992
2 50487 87.9230 22.4125 0001914 107.4213 252.7129 13.18684400190399
Epoch: 23. Okt. 2025 • Age: 26 hours

Aktueller Status

Höhe 1196.5 km
Geschwindigkeit 7.25 km/s
Subsatellitenpunkt -17.19°S, 114.48°W
Startdatum 27. Dez. 2021
Alter 3.8 years
Typ internet

Technische Details

Klassifizierung Payload
Masse 148.00 kg
Trockenmasse 140.00 kg
Gesamtmasse 148.00 kg
Länge 1.30 m
Durchmesser 1.00 m
Spannweite 5.00 m
Form Trapezoid+2 pan
Hersteller ONEWUS
Bus-Typ ARROW
Phasenstatus In Orbit
Besitzer/Staat ONEWEBN/UK

Große Konstellationen

Loading constellations...